Location: Pf�ffikon
(47.2015°N, 8.7809°E)
Time: 18:00:32
(UTC+00:00)

Shenzhou-11 Module - Pass Details

Date: 07 June 2020
Orbit: 263 x 284 km, 42.8° (Epoch: 12 July)

Event Time Altitude Azimuth Distance (km) Brightness Sun altitude
Exits shadow 02:28:28 13° 239° (WSW) 900 3.3 -8.6°
Maximum altitude 02:30:02 25° 186° (S) 580 2.5 -8.4°
Drops below altitude 10° 02:32:05 10° 126° (SE) 1,063 4.4 -8.2°
Sets 02:34:08 0° 112° (ESE) 1,874 5.9 -7.9°
